Weather WX

World > North America > United States > North Carolina

South Greensboro, North Carolina Regional Weather

Lat: 36.02N, Lon: 79.77W
Wx Zone: NCZ022
Feedback

South Greensboro, NC Regional Weather

Expires:201907180700;;236650
ASUS42 KRAH 180610
RWRRAH
NORTH CAROLINA WEATHER ROUNDUP
NATIONAL WEATHER SERVICE RALEIGH NC
200 AM EDT THU JUL 18 2019

NOTE: "FAIR" INDICATES FEW OR NO CLOUDS BELOW 12,000 FEET WITH NO
SIGNIFICANT WEATHER AND/OR OBSTRUCTIONS TO VISIBILITY.


NCZ021-022-025-041-071-084-088-180700-
CENTRAL NORTH CAROLINA
  
CITY           SKY/WX    TMP DP  RH WIND       PRES   REMARKS
CHARLOTTE      MOCLDY    75  69  81 NW3       30.02F                  
GREENSBORO     MOCLDY    76  68  76 SW6       30.00S                  
WINSTON-SALEM  FAIR      77  67  71 VRB3      30.01S                  
RALEIGH-DURHAM MOCLDY    76  74  93 S7        29.99F                  
FORT BRAGG     FAIR      83  76  80 SW5       29.99F                  
FAYETTEVILLE   FAIR      81  76  84 S7        30.00F                  
BURLINGTON     FAIR      80  66  62 SW3       29.98F                  
ROXBORO        NOT AVBL                                               
HENDERSON      NOT AVBL                                               
LOUISBURG      LGT RAIN  75  73  94 S6        30.01F                  
LAURINBURG     FAIR      76  74  93 CALM      30.01F                  
$$
 

SKY/WX - Weather  TMP - Temperature  DP - Dew Point  RH - Relative Humidity
WIND - Wind Direction/Speed PRES - Barometric Pressure VSB - Visibility
WCI - Wind Chill Index E13G22 Wind - East Wind 13 mph/Gusts of 22 mph